Orbital Elements at Epoch 2459200.5 (2020-Dec-17.0) TDB
Reference: JPL 14 (heliocentric ecliptic J2000)
Element | Value | Uncertainty (1-sigma) | Units |
e | .1368130755355251 | 4.4732e-08 | |
a | 3.212884318077403 | 2.6212e-08 | au |
q | 2.773319733181375 | 1.4704e-07 | au |
i | 4.705505006915742 | 6.4621e-06 | deg |
node | 172.6740682024835 | 5.6784e-05 | deg |
peri | 135.2355016711457 | 6.0902e-05 | deg |
M | 267.4530687440875 | 2.3494e-05 | deg |
tp | 2459741.255047528390 (2022-Jun-10.75504753) | 0.00013945 | TDB |
period | 2103.492946426396 5.76 | 2.5742e-05 7.048e-08 | d yr |
n | .1711439064303023 | 2.0944e-09 | deg/d |
Q | 3.652448902973431 | 2.9798e-08 | au |
|
| | Orbit Determination Parameters
Additional Information
|